Volver al catálogo

IRIDIUM 29

ActivoComunicacionesPO
NORAD 24944·PAYLOAD·🇺🇸 United States

Lanzado Sep 14, 1997 desde Baikonur Cosmodrome

Loading…

Próximos Pases (próximas 24 horas)

TLE

ActualizadoSource: Space-Track

Época: Sep 14, 2026, 14:20 UTC

1 24944U 97051A   26257.59779220  .00000217  00000-0  66881-4 0  9991
2 24944  86.3960 313.1241 0002046  95.0780 265.0651 14.36846188518517

Sigue IRIDIUM 29 en tiempo real con AllMySat

Download on the App Store